カタログに戻る

COSMOS 1275

運用中ナビゲーションPO
NORAD 12504·PAYLOAD·🇷🇺 Russia

打ち上げ Jun 4, 1981 から Plesetsk Cosmodrome

Loading…

次のパス (今後24時間)

TLE

最新Source: Space-Track

元期: Sep 14, 2026, 13:33 UTC

1 12504U 81053A   26257.56484354  .00000044  00000-0  30955-4 0  9994
2 12504  82.9627 199.4618 0038369 290.7032  69.0013 13.74538283271551

AllMySatでCOSMOS 1275をリアルタイム追跡

Download on the App Store